Regional Weather Roundup
Issued by NWS Little Rock, AR

Home | Current Version | Previous Version | Text Only | Print | Product List | Glossary Off
Versions: 1 2 3 4 5 6 7 8 9 10 11 12 13 14 15 16 17 18 19 20 21 22 23 24 25 26 27 28 29 30 31 32 33 34 35 36 37 38 39 40 41 42 43 44 45 46 47 48 49 50

110
ASUS44 KLZK 172005
RWRLZK

WEATHER ROUNDUP FOR ARKANSAS
NATIONAL WEATHER SERVICE LITTLE ROCK AR
200 PM CST TUE JAN 17 2017

NOTE: "FAIR" INDICATES FEW OR NO CLOUDS BELOW 12,000 FEET WITH NO
SIGNIFICANT WEATHER AND/OR OBSTRUCTIONS TO VISIBILITY.

ARZ001-003-010-029-172100-
NORTHWEST ARKANSAS

CITY           SKY/WX    TMP DP  RH WIND       PRES   REMARKS
FAYETTEVILLE   CLOUDY    41  37  86 N7        30.12F
FORT SMITH     CLOUDY    46  36  68 W8        30.16S
HARRISON       CLOUDY    44  37  76 NW9       30.10F
BENTONVILLE    CLOUDY   N/A N/A N/A NW5       30.13S
ROGERS         CLOUDY    40  35  83 NW8       30.13F
SILOAM SPGS    CLOUDY    41  34  75 NW7       30.12F
HIGHFILL       CLOUDY    42  36  79 NW8       30.12F
SPRINGDALE     CLOUDY    41  36  81 W8        30.14F
$$

ARZ004-005-016-172100-
NORTH CENTRAL ARKANSAS

CITY           SKY/WX    TMP DP  RH WIND       PRES   REMARKS
BATESVILLE     CLOUDY    52  39  62 NW8       30.11R
FLIPPIN        CLOUDY    46  34  61 W12G17    30.08F
MTN HOME       CLOUDY    45  38  76 VRB6      30.09S
$$

ARZ040-041-172100-
WEST CENTRAL ARKANSAS

CITY           SKY/WX    TMP DP  RH WIND       PRES   REMARKS
MENA           CLOUDY    54  43  66 CALM      30.13R
MOUNT IDA      CLOUDY    54  39  57 VRB5      30.11S
$$

ARZ009-017-025-026-028-172100-
NORTHEAST ARKANSAS

CITY           SKY/WX    TMP DP  RH WIND       PRES   REMARKS
CORNING        CLOUDY    46  41  81 W13       30.10S
JONESBORO      PTSUNNY   51  42  71 W13       30.09S
NEWPORT        MOSUNNY   54  43  66 W8        30.11S
WALNUT RIDGE   CLOUDY    46  37  71 W9        30.10S
BLYTHEVILLE    CLOUDY    53  44  71 W12       30.08S
NW BLYTHEVILLE PTSUNNY   52  45  76 W9        30.08
$$

ARZ022-023-033-042-044-172100-
CENTRAL ARKANSAS

CITY           SKY/WX    TMP DP  RH WIND       PRES   REMARKS
LITTLE ROCK    PTSUNNY   53  42  66 NW9       30.13S
N LITTLE ROCK    N/A     51  42  71 NW5       30.13F
JACKSONVILLE   CLOUDY    53  42  67 W10       30.12S
SEARCY         CLOUDY    53  42  66 W8        30.13R
HOT SPRINGS    CLOUDY    54  41  61 W7        30.13S
RUSSELLVILLE   CLOUDY    49  38  65 NW9       30.13R
CLINTON        CLOUDY    50  41  71 SW8       30.11R
$$

ARZ036-172100-
EAST ARKANSAS

CITY           SKY/WX    TMP DP  RH WIND       PRES   REMARKS
WEST MEMPHIS   CLOUDY    53  46  77 W7        30.10R
$$

ARZ050-053-066-070-073-172100-
SOUTHWEST ARKANSAS

CITY           SKY/WX    TMP DP  RH WIND       PRES   REMARKS
ARKADELPHIA    FAIR      57  46  66 NW5       30.14S
CAMDEN         CLOUDY    55  46  71 SW5       30.15R
TEXARKANA      CLOUDY    52  43  71 W5        30.15F
EL DORADO      CLOUDY    53  50  89 S7        30.15R
DE QUEEN       CLOUDY    53  42  66 VRB5      30.13F
$$

ARZ056-057-069-172100-
SOUTHEAST ARKANSAS

CITY           SKY/WX    TMP DP  RH WIND       PRES   REMARKS
PINE BLUFF     CLOUDY    56  48  74 W6        30.12F
STUTTGART      CLOUDY    52  39  62 W7        30.15R
MONTICELLO     CLOUDY    56  48  74 SW6       30.13S

$$






USA.gov is the U.S. government's official web portal to all federal, state and local government web resources and services.